Regional Weather Roundup
Issued by NWS

Home | Current Version | Previous Version | Graphics & Text | Print | Product List | Glossary On
Versions: 1 2 3 4 5 6 7 8 9 10 11 12 13 14 15 16 17 18 19 20 21 22 23 24 25 26 27 28 29 30 31 32 33 34 35 36 37 38 39 40 41 42 43 44 45 46 47 48 49 50
000
ASUS45 KSLC 260710
RWRUT

UTAH REGIONAL WEATHER ROUNDUP
NATIONAL WEATHER SERVICE SALT LAKE CITY UT
100 AM MDT THU MAR 26 2015

UTZ001>011-023>025-260800-

NORTHERN UTAH

CITY           SKY/WX    TMP DP  RH WIND       PRES   REMARKS
BRIGHAM CITY   MOCLDY    38  29  69 N3        30.41S
HILL AFB         N/A     38  19  45 E10       30.39F WCI  32
LOGAN          CLOUDY    38  31  76 CALM      30.39F
OGDEN            N/A     37  21  52 S8        30.38F WCI  31
PROVO AIRPORT    N/A     36  21  55 S6        30.41S WCI  31
SALT LAKE CITY   N/A     40  21  46 S6        30.39F
VERNAL           N/A     33  14  45 W3        30.33R
WENDOVER         N/A     45  19  36 NW6       30.40S
HEBER CITY       N/A     28  18  64 CALM      30.40S
WEST JORDAN    CLEAR     37  19  48 CALM      30.40F

$$

UTZ012>022-026-027-260800-

SOUTHERN/CENTRAL UTAH

CITY           SKY/WX    TMP DP  RH WIND       PRES   REMARKS
BLANDING         N/A     38  11  34 CALM      30.38R
BRYCE CANYON     N/A     29  13  51 NW7       30.39S WCI  22
CEDAR CITY       N/A     34   9  35 N8        30.34F WCI  27
DELTA            N/A     38  14  38 NE3       30.38F
HANKSVILLE       N/A     41  12  30 CALM      30.35R
MILFORD          N/A     32   5  32 NE8       30.37S WCI  25
MOAB/CYNLANDS    N/A     35  10  35 W6        30.30R WCI  30
PRICE            N/A     42  10  27 NW18G26   30.33R
ST GEORGE        N/A     57  12  17 N12       30.29S

$$

REGIONAL REPORTS     COLORADO/ARIZONA

CITY           SKY/WX    TMP DP  RH WIND       PRES   REMARKS
CRAIG, CO        N/A     31  20  63 W7        30.34S WCI  24
GRAND JUNCTION   N/A     34  16  47 NE3       30.32R
RIFLE            N/A     28  18  66 E3        30.36R
MONTROSE         N/A     33  17  51 S7        30.36R WCI  27
CORTEZ           N/A     38  12  34 NW9       30.30R WCI  31
PAGE, AZ         N/A     49  14  24 W3        30.28R
GRAND CANYON     N/A     31  20  63 NE8       30.33R WCI  23
KINGMAN          N/A     52  23  32 E6        30.22R
FLAGSTAFF        N/A     44  17  33 NE12      30.31R

$$

REGIONAL REPORTS    NEVADA/IDAHO/WYOMING

CITY           SKY/WX    TMP DP  RH WIND       PRES   REMARKS
LAS VEGAS, NV    N/A     66  19  16 CALM      30.18R
ELY              N/A     38  18  44 CALM      30.39F
ELKO             N/A     39  28  64 N3        30.39R
POCATELLO, ID    N/A     41  29  62 SW13      30.40R
BURLEY           N/A     42  30  62 SW12      30.38S
EVANSTON, WY     N/A     27  17  66 SW8       30.39S WCI  19
ROCK SPRINGS     N/A     30  18  60 W20       30.32F WCI  17

$$



USA.gov is the U.S. government's official web portal to all federal, state and local government web resources and services.